Tiempo cada hora Dabrowa

Hoy, 13 Mayo, Jueves

Tiempo Temperatura Precipitaciones Viento Presión Humedad
00:00 +8°C° 0 mm 5 mps 727 mmHg 86%
01:00 +8°C° 0 mm 4 mps 727 mmHg 88%
02:00 +8°C° 0 mm 3 mps 727 mmHg 90%
03:00 +8°C° 0 mm 3 mps 727 mmHg 91%
04:00 +7°C° 0 mm 3 mps 726 mmHg 92%
05:00 +9°C° 0 mm 3 mps 726 mmHg 89%
06:00 +12°C° 0 mm 2 mps 726 mmHg 86%
07:00 +13°C° 0 mm 2 mps 726 mmHg 82%
08:00 +14°C° 0.1 mm 2 mps 725 mmHg 82%
09:00 +15°C° 0.1 mm 2 mps 725 mmHg 81%
10:00 +16°C° 0.1 mm 2 mps 725 mmHg 81%
11:00 +16°C° 0.2 mm 3 mps 725 mmHg 82%
12:00 +15°C° 0.2 mm 4 mps 725 mmHg 83%
13:00 +15°C° 0.2 mm 4 mps 725 mmHg 84%
14:00 +15°C° 0 mm 4 mps 724 mmHg 82%
15:00 +15°C° 0 mm 5 mps 724 mmHg 80%
16:00 +15°C° 0 mm 5 mps 724 mmHg 78%
17:00 +14°C° 0.1 mm 5 mps 724 mmHg 81%
18:00 +13°C° 0.1 mm 5 mps 724 mmHg 84%
19:00 +13°C° 0.1 mm 4 mps 724 mmHg 86%
20:00 +12°C° 0.6 mm 5 mps 724 mmHg 89%
21:00 +12°C° 0.6 mm 5 mps 724 mmHg 91%
22:00 +10°C° 0.6 mm 5 mps 724 mmHg 94%
23:00 +10°C° 1 mm 5 mps 724 mmHg 94%

Mañana, 14 Mayo, Viernes

Tiempo Temperatura Precipitaciones Viento Presión Humedad
00:00 +10°C° 1 mm 5 mps 725 mmHg 94%
01:00 +9°C° 1 mm 5 mps 725 mmHg 94%
02:00 +9°C° 1.4 mm 5 mps 725 mmHg 94%
03:00 +9°C° 1.4 mm 5 mps 725 mmHg 95%
04:00 +9°C° 1.4 mm 5 mps 725 mmHg 95%
05:00 +9°C° 1.4 mm 5 mps 725 mmHg 95%
06:00 +9°C° 1.4 mm 5 mps 726 mmHg 95%
07:00 +9°C° 1.4 mm 5 mps 726 mmHg 95%
08:00 +9°C° 1.8 mm 5 mps 726 mmHg 95%
09:00 +9°C° 1.8 mm 5 mps 727 mmHg 96%
10:00 +9°C° 1.8 mm 5 mps 727 mmHg 96%
11:00 +9°C° 1.3 mm 5 mps 728 mmHg 95%
12:00 +9°C° 1.3 mm 5 mps 728 mmHg 94%
13:00 +9°C° 1.3 mm 5 mps 728 mmHg 93%
14:00 +9°C° 0.7 mm 6 mps 729 mmHg 92%
15:00 +9°C° 0.7 mm 6 mps 729 mmHg 90%
16:00 +9°C° 0.7 mm 6 mps 730 mmHg 89%
17:00 +9°C° 0.1 mm 5 mps 730 mmHg 89%
18:00 +10°C° 0.1 mm 4 mps 730 mmHg 89%
19:00 +8°C° 0.1 mm 4 mps 730 mmHg 89%
20:00 +8°C° 0 mm 4 mps 730 mmHg 89%
21:00 +9°C° 0 mm 3 mps 731 mmHg 89%
22:00 +8°C° 0 mm 3 mps 731 mmHg 89%
23:00 +8°C° 0 mm 3 mps 731 mmHg 89%

Pasado mañana, 15 Mayo, Sábado

Tiempo Temperatura Precipitaciones Viento Presión Humedad
00:00 +8°C° 0 mm 3 mps 731 mmHg 89%
01:00 +8°C° 0 mm 2 mps 731 mmHg 90%
02:00 +8°C° 0 mm 2 mps 731 mmHg 90%
03:00 +8°C° 0 mm 2 mps 731 mmHg 90%
04:00 +8°C° 0 mm 2 mps 731 mmHg 90%
05:00 +9°C° 0 mm 2 mps 732 mmHg 87%
06:00 +10°C° 0 mm 2 mps 732 mmHg 85%
07:00 +12°C° 0 mm 2 mps 732 mmHg 83%
08:00 +13°C° 0 mm 2 mps 732 mmHg 77%
09:00 +15°C° 0 mm 2 mps 732 mmHg 71%
10:00 +16°C° 0 mm 2 mps 733 mmHg 65%
11:00 +17°C° 0 mm 2 mps 732 mmHg 62%
12:00 +17°C° 0 mm 2 mps 732 mmHg 59%
13:00 +19°C° 0 mm 1 mps 732 mmHg 56%
14:00 +19°C° 0 mm 1 mps 732 mmHg 56%
15:00 +19°C° 0 mm 1 mps 732 mmHg 57%
16:00 +20°C° 0 mm 1 mps 731 mmHg 57%
17:00 +18°C° 0 mm 1 mps 731 mmHg 65%
18:00 +15°C° 0 mm 2 mps 731 mmHg 72%
19:00 +14°C° 0 mm 2 mps 731 mmHg 79%
20:00 +13°C° 0 mm 2 mps 731 mmHg 81%
21:00 +12°C° 0 mm 2 mps 731 mmHg 83%
22:00 +12°C° 0 mm 2 mps 730 mmHg 85%
23:00 +10°C° 0 mm 2 mps 730 mmHg 86%

16 Mayo, Domingo

Tiempo Temperatura Precipitaciones Viento Presión Humedad
00:00 +10°C° 0 mm 2 mps 730 mmHg 88%
01:00 +10°C° 0 mm 2 mps 730 mmHg 90%
02:00 +10°C° 0 mm 2 mps 730 mmHg 91%
03:00 +9°C° 0 mm 2 mps 730 mmHg 92%
04:00 +9°C° 0 mm 2 mps 729 mmHg 92%
05:00 +10°C° 0 mm 2 mps 730 mmHg 88%
06:00 +13°C° 0 mm 2 mps 730 mmHg 84%
07:00 +14°C° 0 mm 3 mps 730 mmHg 80%
08:00 +16°C° 0 mm 3 mps 730 mmHg 74%
09:00 +18°C° 0 mm 3 mps 729 mmHg 68%
10:00 +19°C° 0 mm 4 mps 729 mmHg 62%
11:00 +20°C° 0.4 mm 4 mps 729 mmHg 62%
12:00 +20°C° 0.4 mm 4 mps 729 mmHg 62%
13:00 +20°C° 0.4 mm 3 mps 728 mmHg 63%
14:00 +19°C° 0.8 mm 3 mps 728 mmHg 69%
15:00 +18°C° 0.8 mm 3 mps 728 mmHg 75%
16:00 +17°C° 0.8 mm 3 mps 728 mmHg 80%
17:00 +16°C° 0.6 mm 3 mps 728 mmHg 83%
18:00 +14°C° 0.6 mm 3 mps 728 mmHg 85%
19:00 +13°C° 0.6 mm 3 mps 728 mmHg 88%
20:00 +12°C° 0.1 mm 3 mps 728 mmHg 91%
21:00 +11°C° 0.1 mm 4 mps 728 mmHg 93%
22:00 +11°C° 0.1 mm 4 mps 728 mmHg 96%
23:00 +10°C° 0 mm 4 mps 729 mmHg 96%

17 Mayo, Lunes

Tiempo Temperatura Precipitaciones Viento Presión Humedad
00:00 +10°C° 0 mm 3 mps 729 mmHg 96%
01:00 +10°C° 0 mm 3 mps 729 mmHg 96%
02:00 +10°C° 0.2 mm 3 mps 729 mmHg 96%
03:00 +9°C° 0.2 mm 3 mps 729 mmHg 96%
04:00 +9°C° 0.2 mm 3 mps 729 mmHg 96%
05:00 +10°C° 0 mm 3 mps 729 mmHg 93%
06:00 +11°C° 0 mm 3 mps 729 mmHg 90%
07:00 +11°C° 0 mm 3 mps 730 mmHg 88%
08:00 +13°C° 0.1 mm 3 mps 730 mmHg 80%
09:00 +14°C° 0.1 mm 3 mps 730 mmHg 72%
10:00 +17°C° 0.1 mm 3 mps 729 mmHg 65%
11:00 +18°C° 0.1 mm 3 mps 729 mmHg 61%
12:00 +18°C° 0.1 mm 3 mps 729 mmHg 58%
13:00 +19°C° 0.1 mm 3 mps 729 mmHg 54%
14:00 +19°C° 0.3 mm 3 mps 729 mmHg 59%
15:00 +18°C° 0.3 mm 3 mps 729 mmHg 64%
16:00 +18°C° 0.3 mm 4 mps 729 mmHg 69%
17:00 +16°C° 0.5 mm 3 mps 729 mmHg 75%
18:00 +14°C° 0.5 mm 3 mps 729 mmHg 81%
19:00 +14°C° 0.5 mm 2 mps 729 mmHg 87%
20:00 +13°C° 0.3 mm 2 mps 729 mmHg 89%
21:00 +12°C° 0.3 mm 1 mps 728 mmHg 91%
22:00 +12°C° 0.3 mm 1 mps 728 mmHg 93%
23:00 +12°C° 0 mm 1 mps 728 mmHg 93%

18 Mayo, Martes

Tiempo Temperatura Precipitaciones Viento Presión Humedad
00:00 +11°C° 0 mm 1 mps 728 mmHg 93%
01:00 +11°C° 0 mm 1 mps 728 mmHg 93%
02:00 +11°C° 0.1 mm 1 mps 728 mmHg 93%
03:00 +10°C° 0.1 mm 2 mps 727 mmHg 93%
04:00 +10°C° 0.1 mm 2 mps 727 mmHg 93%
05:00 +10°C° 1 mm 2 mps 726 mmHg 94%
06:00 +10°C° 1 mm 2 mps 726 mmHg 95%
07:00 +10°C° 1 mm 3 mps 726 mmHg 96%
08:00 +11°C° 0.9 mm 3 mps 725 mmHg 96%
09:00 +11°C° 0.9 mm 3 mps 725 mmHg 96%
10:00 +11°C° 0.9 mm 3 mps 725 mmHg 96%
11:00 +11°C° 2 mm 3 mps 724 mmHg 96%
12:00 +11°C° 2 mm 3 mps 724 mmHg 96%
13:00 +11°C° 2 mm 3 mps 724 mmHg 96%
14:00 +10°C° 0.6 mm 5 mps 725 mmHg 95%
15:00 +9°C° 0.6 mm 7 mps 725 mmHg 95%
16:00 +7°C° 0.6 mm 9 mps 725 mmHg 95%
17:00 +7°C° 0.4 mm 9 mps 726 mmHg 94%
18:00 +7°C° 0.4 mm 10 mps 726 mmHg 94%
19:00 +6°C° 0.4 mm 10 mps 726 mmHg 93%
20:00 +7°C° 1.5 mm 10 mps 727 mmHg 93%
21:00 +7°C° 1.5 mm 10 mps 727 mmHg 93%
22:00 +7°C° 1.5 mm 10 mps 728 mmHg 93%
23:00 +7°C° 1.8 mm 10 mps 728 mmHg 93%
Mostrar más

Necesitamos Su Consentimiento

Meteoprog y nuestros Proveedores de Servicios pueden almacenar y acceder a sus datos personales como cookies, identificadores de dispositivo u otras tecnologías similares de su dispositivo y procesar dichos datos para personalizar contenido y anuncios, además de ofrecer funciones de redes sociales y analizar el tráfico.

  • Almacenar y/o acceder a información en su dispositivo

    Se puede almacenar o acceder a cookies, identificadores de dispositivo u otra información de su dispositivo para los fines anteriormente indicados.

  • Anuncios y contenido personalizados, medición de anuncios y contenido, percepciones del público, y desarrollo de productos

    Los anuncios y el contenido pueden personalizarse en base a su perfil. Se pueden añadir más datos para personalizar mejor los anuncios y contenidos. Se puede medir el rendimiento de los anuncios y contenidos. Se puede obtener la percepción sobre el público que ha visto los anuncios y contenidos. Dichos datos pueden usarse para desarrollar o mejorar la experiencia del usuario, sistemas y software.

Al hacer clic en ‘Estoy De Acuerdo’ usted permitirá el uso de las cookies, identificadores de dispositivo, balizas web u otras tecnologías similares indicadas. Su configuración puede cambiarse desde el navegador de su dispositivo.

Para ciertos fines, los intereses legítimos pueden ser considerados por encima del consentimiento. Puede leer más sobre ello en nuestra Política de Privacidad y Cookies.